SCP
0 0 1 0 0 0 0 0 0 0 0 0 0 0 0 0 0 0 0 -0 -0 -0 -0 -0 -0 -0 -0 -0 -0 -0 -0 -0 -0 0 0 0 0 0 0 0 0 0 -0
0 0 1 0 0 0 0 0 0 0 0 0 0 0 0 0 0 0 0 0 -0 -0 -0 -0 -0 -0 -0 -0 -0 -0 -0 -0 -0 -0 -0 0 0 0 0 0 0 0 0
0 0 0 0 0 0 0 0 0 0 0 0 0 0 0 0 0 0 0 0 -0 -0 -0 -0 -0 -0 -0 -0 -0 -0 -0 -0 -0 -0 -0 0 0 0 0 0 0 0 0
0 0 0 0 0 0 0 0 0 0 0 0 0 0 0 0 0 0 -0 -0 -0 -0 -0 -0 -0 -0 -0 -0 -0 -0 -0 -0 -0 -0 0 0 0 0 0 0 0 0 0
0 0 1 0 0 0 0 0 1 1 0 0 0 0 0 0 0 0 -0 -0 -0 -0 -0 -0 -0 -0 -0 -0 -0 -0 -0 -0 -0 -0 -0 0 0 0 0 0 0 0 0
0 1 0 0 0 0 0 0 0 0 0 0 0 0 0 0 0 0 0 0 -0 -0 -0 -0 -0 -0 -0 -0 -0 -0 -0 -0 -0 -0 0 0 0 0 0 0 0 0 0
0 0 0 0 0 0 0 0 0 0 0 0 0 0 0 0 0 0 0 -0 -0 -0 -0 -0 -0 -0 -0 -0 -0 -0 -0 -0 0 0 0 0 0 0 0 0 0 0 0
0 0 0 0 0 0 0 0 0 0 0 0 0 0 0 0 0 0 -0 -0 -0 -0 -0 0 0 -0 -0 -0 -0 -0 -0 -0 0 0 0 0 0 0 0 0 0 0 0
0 0 0 0 0 0 0 0 0 0 0 0 0 0 0 0 0 -0 -0 0 0 0 0 0 0 0 0 0 0 0 0 0 0 0 0 0 0 0 0 0 0 0 0
0 0 0 0 0 0 0 0 0 0 0 0 0 0 0 0 0 0 0 0 0 0 0 0 0 0 0 0 0 0 0 0 0 0 0 0 0 0 0 0 0 0 0
0 0 0 0 0 0 0 0 0 0 0 0 0 0 0 0 0 0 0 0 0 0 0 0 0 0 0 0 0 0 0 0 0 0 0 0 0 0 0 0 0 0 0
0 0 0 0 0 0 0 0 0 0 0 0 0 0 0 0 0 0 0 0 0 0 0 0 0 0 0 0 0 0 0 0 0 0 0 0 0 0 0 0 0 0 0
0 0 0 0 0 0 0 0 0 0 0 0 0 0 0 0 0 0 0 0 0 0 0 0 0 0 0 0 0 0 0 0 0 0 0 0 0 0 0 0 0 0 0
0 0 0 0 0 0 0 0 0 0 0 0 0 0 0 0 0 0 0 0 0 0 0 0 0 0 0 0 0 0 0 0 0 0 0 0 0 0 0 0 0 0 0
0 0 0 0 0 0 0 0 0 0 0 0 0 0 0 0 0 0 0 0 0 0 0 0 0 0 0 0 0 0 0 0 0 0 0 0 0 0 0 0 0 0 0
0 0 0 0 0 0 0 0 0 0 0 0 0 0 0 0 0 0 0 0 0 0 0 0 0 0 0 0 0 0 0 0 0 0 0 0 0 0 0 0 0 0 0
0 0 0 0 0 0 0 0 0 0 0 0 0 0 0 0 0 0 0 0 0 0 0 0 0 0 0 0 0 0 0 0 0 0 0 0 0 0 0 0 0 0 0
0 0 0 0 0 0 0 0 0 0 0 0 0 0 0 0 0 0 0 0 0 0 0 0 0 0 0 0 0 0 0 0 0 0 0 0 0 0 0 0 0 0 0
0 0 0 0 0 0 0 0 0 0 0 0 0 0 0 0 0 0 0 0 0 0 0 0 0 0 0 0 0 0 0 0 0 0 0 0 0 0 0 0 0 0 0
0 0 0 0 0 0 0 0 0 0 0 0 0 0 0 0 0 0 0 0 0 0 0 0 0 0 0 0 0 0 0 0 0 0 0 0 0 0 0 0 0 0 0
0 0 0 0 0 0 0 0 0 0 0 0 0 0 0 0 0 0 0 0 0 0 0 0 0 0 0 0 0 0 0 0 0 0 0 0 0 0 0 0 0 0 0
0 0 0 0 0 0 0 0 0 0 0 0 0 0 0 0 0 0 0 0 0 0 0 0 0 0 0 0 0 0 0 0 0 0 0 0 0 0 0 0 0 0 0
0 0 0 0 0 0 0 0 0 0 0 0 0 0 0 0 0 0 0 0 0 0 0 0 0 0 0 0 0 0 0 0 0 0 0 0 0 0 0 0 0 0 0
0 0 0 0 0 0 0 0 0 0 0 0 0 0 0 0 0 0 0 0 0 0 0 0 0 0 0 0 0 0 0 0 0 0 0 0 0 0 0 0 0 0 0
0 0 0 0 0 0 0 0 0 0 0 0 0 0 0 0 0 0 0 0 0 0 0 0 0 0 0 0 0 0 0 0 0 0 0 0 0 0 0 0 0 0 0
0 0 0 0 0 0 0 0 0 0 0 0 0 0 0 0 0 0 0 0 0 0 0 0 0 0 0 0 0 0 0 0 0 0 0 0 0 0 0 0 0 0 0
Wind_Speed_500mb
59 53 52 49 49 45 39 36 33 34 34 35 33 34 32 30 28 26 25 24 23 23 19 18 20 16 12 10 9 7 6 1 3 7 9 13 15 18 21 23 20 16 16
41 56 55 52 50 48 42 37 35 33 35 32 30 30 30 30 28 24 24 25 25 23 21 21 16 11 11 10 7 6 5 7 6 7 7 8 10 13 15 18 19 15 13
51 58 58 56 51 49 45 39 35 35 33 34 30 28 29 28 27 27 26 28 26 26 20 15 14 11 10 9 7 7 7 7 6 5 5 3 6 10 11 13 15 14 11
54 59 59 56 53 48 47 44 39 36 42 37 35 29 29 30 32 34 31 28 26 21 19 16 15 13 11 10 8 7 6 6 6 5 5 4 4 6 6 8 9 10 9
54 61 58 57 56 53 47 41 40 40 40 38 37 35 35 35 33 34 34 26 22 23 22 19 16 14 12 11 8 7 6 6 5 4 4 3 1 2 3 2 3 4 4
61 61 59 57 58 55 49 43 42 39 40 38 39 36 37 41 39 30 24 22 20 19 16 14 12 11 9 8 8 8 8 9 9 9 9 8 8 6 7 7 6 6 6
66 61 60 61 53 46 46 42 40 41 41 41 40 40 39 35 30 24 21 19 19 17 15 12 10 10 9 10 10 10 10 10 10 11 12 14 15 16 18 14 9 10 11
64 64 63 56 49 44 43 41 41 42 43 43 40 37 32 30 28 25 22 20 18 16 16 15 16 16 16 17 17 16 17 17 17 16 15 16 17 20 21 20 13 15 14
61 64 63 59 53 49 43 43 44 45 43 42 40 37 36 33 30 28 25 22 19 18 18 17 16 14 13 12 12 13 14 15 16 16 17 19 20 24 25 22 21 20 19
62 64 62 60 55 50 45 48 50 48 45 44 43 42 40 38 36 31 27 24 22 21 18 15 13 12 10 10 10 10 11 12 13 14 15 17 19 22 25 24 24 26 26
61 65 65 63 59 54 49 47 52 51 48 49 48 45 42 38 33 31 29 25 22 20 18 15 14 13 12 11 11 11 12 13 14 16 17 18 19 22 24 25 24 25 27
75 75 71 69 64 61 56 46 55 57 55 52 47 43 40 38 36 33 30 26 23 21 20 19 17 16 15 13 13 14 15 16 18 18 20 20 21 23 25 26 26 25 26
79 77 76 73 71 68 64 55 57 60 57 53 47 45 43 41 37 34 31 27 26 25 23 21 19 18 16 15 15 15 17 18 19 19 20 21 21 23 26 27 27 26 26
80 80 78 79 76 72 67 63 57 60 59 55 52 50 47 44 41 37 33 31 30 28 26 23 21 19 18 18 18 17 16 16 16 18 20 20 21 22 24 25 27 27 27
83 84 83 80 79 76 72 70 66 64 62 57 54 51 50 47 42 38 36 34 32 29 27 24 22 22 21 20 17 16 17 18 19 20 22 23 23 23 23 22 24 25 24
80 87 87 82 82 79 77 72 69 66 63 60 57 55 52 48 45 41 38 35 33 31 27 25 25 24 23 20 18 17 18 19 21 22 23 25 25 24 24 22 23 21 15
78 80 86 86 80 81 81 73 71 69 67 64 60 59 56 53 48 44 41 39 35 32 30 29 28 25 23 21 20 21 22 23 24 25 25 25 25 25 25 24 23 21 21
79 76 72 85 85 82 78 71 67 73 71 67 65 63 59 55 51 48 45 41 38 36 36 33 30 27 25 23 22 24 25 26 27 27 27 26 25 23 24 23 23 22 21
72 78 70 75 87 86 81 75 65 70 72 69 67 65 61 57 54 51 47 45 44 43 39 36 32 29 27 26 25 27 28 29 29 29 28 27 25 24 22 22 23 22 22
69 71 72 68 79 85 83 78 73 70 72 71 70 68 64 60 58 55 54 52 49 47 43 40 36 33 30 28 28 29 31 32 30 28 28 27 26 25 23 22 22 21 19
76 73 74 73 77 86 90 88 83 79 81 79 76 72 68 66 65 63 58 54 53 49 44 42 39 35 32 30 29 30 29 29 30 30 31 29 28 27 25 24 22 22 21
82 80 79 77 80 83 90 89 92 87 88 84 79 74 73 72 71 65 60 59 55 50 49 46 41 37 35 32 28 27 17 22 26 26 26 25 25 26 26 24 23 23 22
72 83 88 88 90 89 89 96 98 92 91 86 83 83 83 78 72 67 65 62 57 54 51 46 43 40 36 34 31 23 12 13 9 18 21 22 23 24 24 24 23 22 21
68 69 72 78 91 95 96 99 103 107 105 100 94 88 84 81 76 71 69 64 59 55 53 48 46 43 40 37 36 35 35 36 19 13 20 26 26 27 27 27 27 25 22
67 63 69 72 80 90 98 102 103 107 108 99 95 89 87 83 79 75 72 67 62 58 53 52 49 45 42 40 39 38 37 36 38 38 29 30 31 30 31 31 31 30 28
76 67 59 68 68 69 81 93 103 104 111 106 98 92 90 87 81 79 75 71 64 59 57 54 51 48 45 43 42 40 39 33 32 35 39 40 35 32 33 36 37 37 36
Wind_Direction_500mb
193 197 193 184 177 175 172 173 175 186 184 188 184 183 182 185 184 183 184 184 180 177 175 165 168 178 174 169 166 161 138 18 83 74 75 69 56 48 49 52 58 76 96
199 185 182 181 177 173 173 171 170 179 182 181 185 181 180 182 184 180 178 176 176 174 177 182 188 168 160 176 200 205 160 137 127 114 101 85 55 47 50 54 63 75 89
184 177 179 180 177 178 177 176 173 174 184 179 171 173 172 173 178 175 177 170 165 169 185 172 157 163 162 153 144 140 129 122 122 131 134 101 60 57 61 57 55 65 84
177 178 180 177 177 177 177 175 173 175 183 170 163 163 165 163 162 160 163 181 186 187 170 161 156 156 154 152 149 152 162 149 143 139 137 122 87 71 63 62 59 69 75
179 181 181 176 178 177 175 171 174 177 172 171 173 165 165 162 161 168 175 174 169 163 161 161 163 164 174 179 187 190 189 189 184 183 178 190 191 56 343 20 56 91 83
178 183 184 180 178 182 182 187 189 186 174 173 177 172 174 181 183 179 173 167 164 171 177 180 184 187 194 203 211 223 232 237 240 246 245 237 236 244 270 266 271 247 244
181 184 185 184 187 190 193 193 188 185 179 177 177 180 182 184 184 185 183 180 179 180 185 189 197 211 218 229 235 242 246 251 254 254 253 248 244 247 262 274 256 247 251
181 182 184 191 195 198 200 195 190 189 183 184 185 187 188 191 192 192 188 188 191 199 207 216 225 234 240 244 248 253 257 261 261 258 255 254 256 257 261 268 273 256 242
184 186 188 195 197 199 207 202 195 194 190 191 192 194 193 194 195 196 198 203 210 221 227 228 226 228 231 241 249 253 259 261 265 265 265 263 262 265 270 272 273 270 270
187 190 196 198 200 203 207 205 198 199 196 197 198 197 196 198 200 202 207 211 217 224 225 224 225 229 231 237 250 259 268 273 275 275 274 272 271 271 274 275 273 272 271
190 195 199 204 203 206 207 204 203 202 202 204 203 201 203 205 206 209 214 217 220 225 225 224 227 230 232 238 248 258 266 273 275 273 273 273 276 277 277 279 276 272 271
196 198 200 205 206 206 210 214 206 205 207 209 208 207 206 207 209 213 216 220 225 228 229 227 226 231 238 245 252 261 269 274 276 277 276 276 276 279 280 281 279 276 273
202 199 201 204 207 209 213 215 214 211 209 209 209 210 210 213 215 217 220 224 228 230 232 233 235 240 247 255 261 266 269 271 274 277 278 275 275 277 278 280 283 281 276
208 208 204 204 207 210 214 220 222 217 212 211 211 211 213 217 219 220 222 225 228 231 234 237 241 248 256 262 267 268 270 273 279 283 285 287 285 285 286 287 287 284 280
211 213 213 207 207 209 213 217 221 223 218 214 215 216 216 218 222 225 227 229 230 232 234 238 244 251 256 259 260 262 268 274 278 280 282 284 285 286 287 289 287 288 287
219 217 215 213 211 210 213 216 220 223 219 217 217 220 222 222 223 226 229 232 233 234 236 241 246 249 251 252 255 264 273 280 284 286 285 286 285 285 285 288 287 286 291
226 223 219 219 219 214 217 218 221 222 219 218 219 220 221 223 226 228 230 232 234 238 242 244 246 248 251 258 268 276 280 283 284 285 284 284 285 285 282 277 276 279 276
233 233 228 219 223 221 225 226 225 217 216 217 220 222 223 224 226 228 230 232 235 238 239 240 242 245 249 255 264 272 277 282 285 284 281 278 277 276 277 278 275 269 258
239 239 234 223 223 223 226 229 232 218 218 218 221 224 225 227 229 231 232 233 235 236 237 237 239 243 249 258 267 276 282 284 283 279 276 275 274 273 271 269 269 261 249
239 241 241 231 226 226 227 228 228 219 221 222 223 226 228 230 231 231 231 231 233 235 235 236 238 241 248 258 269 276 282 282 278 273 270 268 268 268 266 262 260 259 252
241 237 239 234 229 224 225 225 224 220 219 221 224 225 227 230 232 231 231 232 233 233 234 236 238 242 249 259 271 278 280 278 273 269 266 263 261 260 259 256 254 254 255
241 239 235 237 234 230 227 229 227 224 222 223 224 225 227 228 229 230 231 232 233 233 235 237 241 245 250 259 266 277 281 278 265 260 256 255 255 256 255 253 252 254 253
240 243 243 242 242 237 232 226 226 227 228 225 224 225 226 226 228 229 231 232 231 232 235 239 242 247 253 259 264 259 266 242 266 261 256 253 251 250 250 252 255 257 255
254 252 248 245 242 239 235 231 227 227 225 227 227 226 226 227 228 229 229 230 231 233 235 239 243 247 252 259 263 262 257 256 260 269 258 254 252 251 251 254 257 259 258
259 253 248 250 244 239 237 237 232 228 231 232 230 228 227 227 227 227 228 230 230 232 234 238 243 248 253 257 260 262 261 258 255 249 263 258 254 253 252 252 256 259 259
251 247 244 243 246 239 237 237 236 231 230 230 230 229 227 227 226 226 227 228 230 232 235 239 243 247 251 255 258 260 259 255 257 254 253 258 258 258 254 253 255 259 265
Wind_Speed_850mb
59 53 52 49 49 45 39 36 33 34 34 35 33 34 32 30 28 26 25 24 23 23 19 18 20 16 12 10 9 7 6 1 3 7 9 13 15 18 21 23 20 16 16
41 56 55 52 50 48 42 37 35 33 35 32 30 30 30 30 28 24 24 25 25 23 21 21 16 11 11 10 7 6 5 7 6 7 7 8 10 13 15 18 19 15 13
51 58 58 56 51 49 45 39 35 35 33 34 30 28 29 28 27 27 26 28 26 26 20 15 14 11 10 9 7 7 7 7 6 5 5 3 6 10 11 13 15 14 11
54 59 59 56 53 48 47 44 39 36 42 37 35 29 29 30 32 34 31 28 26 21 19 16 15 13 11 10 8 7 6 6 6 5 5 4 4 6 6 8 9 10 9
54 61 58 57 56 53 47 41 40 40 40 38 37 35 35 35 33 34 34 26 22 23 22 19 16 14 12 11 8 7 6 6 5 4 4 3 1 2 3 2 3 4 4
61 61 59 57 58 55 49 43 42 39 40 38 39 36 37 41 39 30 24 22 20 19 16 14 12 11 9 8 8 8 8 9 9 9 9 8 8 6 7 7 6 6 6
66 61 60 61 53 46 46 42 40 41 41 41 40 40 39 35 30 24 21 19 19 17 15 12 10 10 9 10 10 10 10 10 10 11 12 14 15 16 18 14 9 10 11
64 64 63 56 49 44 43 41 41 42 43 43 40 37 32 30 28 25 22 20 18 16 16 15 16 16 16 17 17 16 17 17 17 16 15 16 17 20 21 20 13 15 14
61 64 63 59 53 49 43 43 44 45 43 42 40 37 36 33 30 28 25 22 19 18 18 17 16 14 13 12 12 13 14 15 16 16 17 19 20 24 25 22 21 20 19
62 64 62 60 55 50 45 48 50 48 45 44 43 42 40 38 36 31 27 24 22 21 18 15 13 12 10 10 10 10 11 12 13 14 15 17 19 22 25 24 24 26 26
61 65 65 63 59 54 49 47 52 51 48 49 48 45 42 38 33 31 29 25 22 20 18 15 14 13 12 11 11 11 12 13 14 16 17 18 19 22 24 25 24 25 27
75 75 71 69 64 61 56 46 55 57 55 52 47 43 40 38 36 33 30 26 23 21 20 19 17 16 15 13 13 14 15 16 18 18 20 20 21 23 25 26 26 25 26
79 77 76 73 71 68 64 55 57 60 57 53 47 45 43 41 37 34 31 27 26 25 23 21 19 18 16 15 15 15 17 18 19 19 20 21 21 23 26 27 27 26 26
80 80 78 79 76 72 67 63 57 60 59 55 52 50 47 44 41 37 33 31 30 28 26 23 21 19 18 18 18 17 16 16 16 18 20 20 21 22 24 25 27 27 27
83 84 83 80 79 76 72 70 66 64 62 57 54 51 50 47 42 38 36 34 32 29 27 24 22 22 21 20 17 16 17 18 19 20 22 23 23 23 23 22 24 25 24
80 87 87 82 82 79 77 72 69 66 63 60 57 55 52 48 45 41 38 35 33 31 27 25 25 24 23 20 18 17 18 19 21 22 23 25 25 24 24 22 23 21 15
78 80 86 86 80 81 81 73 71 69 67 64 60 59 56 53 48 44 41 39 35 32 30 29 28 25 23 21 20 21 22 23 24 25 25 25 25 25 25 24 23 21 21
79 76 72 85 85 82 78 71 67 73 71 67 65 63 59 55 51 48 45 41 38 36 36 33 30 27 25 23 22 24 25 26 27 27 27 26 25 23 24 23 23 22 21
72 78 70 75 87 86 81 75 65 70 72 69 67 65 61 57 54 51 47 45 44 43 39 36 32 29 27 26 25 27 28 29 29 29 28 27 25 24 22 22 23 22 22
69 71 72 68 79 85 83 78 73 70 72 71 70 68 64 60 58 55 54 52 49 47 43 40 36 33 30 28 28 29 31 32 30 28 28 27 26 25 23 22 22 21 19
76 73 74 73 77 86 90 88 83 79 81 79 76 72 68 66 65 63 58 54 53 49 44 42 39 35 32 30 29 30 29 29 30 30 31 29 28 27 25 24 22 22 21
82 80 79 77 80 83 90 89 92 87 88 84 79 74 73 72 71 65 60 59 55 50 49 46 41 37 35 32 28 27 17 22 26 26 26 25 25 26 26 24 23 23 22
72 83 88 88 90 89 89 96 98 92 91 86 83 83 83 78 72 67 65 62 57 54 51 46 43 40 36 34 31 23 12 13 9 18 21 22 23 24 24 24 23 22 21
68 69 72 78 91 95 96 99 103 107 105 100 94 88 84 81 76 71 69 64 59 55 53 48 46 43 40 37 36 35 35 36 19 13 20 26 26 27 27 27 27 25 22
67 63 69 72 80 90 98 102 103 107 108 99 95 89 87 83 79 75 72 67 62 58 53 52 49 45 42 40 39 38 37 36 38 38 29 30 31 30 31 31 31 30 28
76 67 59 68 68 69 81 93 103 104 111 106 98 92 90 87 81 79 75 71 64 59 57 54 51 48 45 43 42 40 39 33 32 35 39 40 35 32 33 36 37 37 36
Wind_Direction_850mb
193 197 193 184 177 175 172 173 175 186 184 188 184 183 182 185 184 183 184 184 180 177 175 165 168 178 174 169 166 161 138 18 83 74 75 69 56 48 49 52 58 76 96
199 185 182 181 177 173 173 171 170 179 182 181 185 181 180 182 184 180 178 176 176 174 177 182 188 168 160 176 200 205 160 137 127 114 101 85 55 47 50 54 63 75 89
184 177 179 180 177 178 177 176 173 174 184 179 171 173 172 173 178 175 177 170 165 169 185 172 157 163 162 153 144 140 129 122 122 131 134 101 60 57 61 57 55 65 84
177 178 180 177 177 177 177 175 173 175 183 170 163 163 165 163 162 160 163 181 186 187 170 161 156 156 154 152 149 152 162 149 143 139 137 122 87 71 63 62 59 69 75
179 181 181 176 178 177 175 171 174 177 172 171 173 165 165 162 161 168 175 174 169 163 161 161 163 164 174 179 187 190 189 189 184 183 178 190 191 56 343 20 56 91 83
178 183 184 180 178 182 182 187 189 186 174 173 177 172 174 181 183 179 173 167 164 171 177 180 184 187 194 203 211 223 232 237 240 246 245 237 236 244 270 266 271 247 244
181 184 185 184 187 190 193 193 188 185 179 177 177 180 182 184 184 185 183 180 179 180 185 189 197 211 218 229 235 242 246 251 254 254 253 248 244 247 262 274 256 247 251
181 182 184 191 195 198 200 195 190 189 183 184 185 187 188 191 192 192 188 188 191 199 207 216 225 234 240 244 248 253 257 261 261 258 255 254 256 257 261 268 273 256 242
184 186 188 195 197 199 207 202 195 194 190 191 192 194 193 194 195 196 198 203 210 221 227 228 226 228 231 241 249 253 259 261 265 265 265 263 262 265 270 272 273 270 270
187 190 196 198 200 203 207 205 198 199 196 197 198 197 196 198 200 202 207 211 217 224 225 224 225 229 231 237 250 259 268 273 275 275 274 272 271 271 274 275 273 272 271
190 195 199 204 203 206 207 204 203 202 202 204 203 201 203 205 206 209 214 217 220 225 225 224 227 230 232 238 248 258 266 273 275 273 273 273 276 277 277 279 276 272 271
196 198 200 205 206 206 210 214 206 205 207 209 208 207 206 207 209 213 216 220 225 228 229 227 226 231 238 245 252 261 269 274 276 277 276 276 276 279 280 281 279 276 273
202 199 201 204 207 209 213 215 214 211 209 209 209 210 210 213 215 217 220 224 228 230 232 233 235 240 247 255 261 266 269 271 274 277 278 275 275 277 278 280 283 281 276
208 208 204 204 207 210 214 220 222 217 212 211 211 211 213 217 219 220 222 225 228 231 234 237 241 248 256 262 267 268 270 273 279 283 285 287 285 285 286 287 287 284 280
211 213 213 207 207 209 213 217 221 223 218 214 215 216 216 218 222 225 227 229 230 232 234 238 244 251 256 259 260 262 268 274 278 280 282 284 285 286 287 289 287 288 287
219 217 215 213 211 210 213 216 220 223 219 217 217 220 222 222 223 226 229 232 233 234 236 241 246 249 251 252 255 264 273 280 284 286 285 286 285 285 285 288 287 286 291
226 223 219 219 219 214 217 218 221 222 219 218 219 220 221 223 226 228 230 232 234 238 242 244 246 248 251 258 268 276 280 283 284 285 284 284 285 285 282 277 276 279 276
233 233 228 219 223 221 225 226 225 217 216 217 220 222 223 224 226 228 230 232 235 238 239 240 242 245 249 255 264 272 277 282 285 284 281 278 277 276 277 278 275 269 258
239 239 234 223 223 223 226 229 232 218 218 218 221 224 225 227 229 231 232 233 235 236 237 237 239 243 249 258 267 276 282 284 283 279 276 275 274 273 271 269 269 261 249
239 241 241 231 226 226 227 228 228 219 221 222 223 226 228 230 231 231 231 231 233 235 235 236 238 241 248 258 269 276 282 282 278 273 270 268 268 268 266 262 260 259 252
241 237 239 234 229 224 225 225 224 220 219 221 224 225 227 230 232 231 231 232 233 233 234 236 238 242 249 259 271 278 280 278 273 269 266 263 261 260 259 256 254 254 255
241 239 235 237 234 230 227 229 227 224 222 223 224 225 227 228 229 230 231 232 233 233 235 237 241 245 250 259 266 277 281 278 265 260 256 255 255 256 255 253 252 254 253
240 243 243 242 242 237 232 226 226 227 228 225 224 225 226 226 228 229 231 232 231 232 235 239 242 247 253 259 264 259 266 242 266 261 256 253 251 250 250 252 255 257 255
254 252 248 245 242 239 235 231 227 227 225 227 227 226 226 227 228 229 229 230 231 233 235 239 243 247 252 259 263 262 257 256 260 269 258 254 252 251 251 254 257 259 258
259 253 248 250 244 239 237 237 232 228 231 232 230 228 227 227 227 227 228 230 230 232 234 238 243 248 253 257 260 262 261 258 255 249 263 258 254 253 252 252 256 259 259
251 247 244 243 246 239 237 237 236 231 230 230 230 229 227 227 226 226 227 228 230 232 235 239 243 247 251 255 258 260 259 255 257 254 253 258 258 258 254 253 255 259 265